Flag for Germany Weather past 2 weeks in Meppen, Lower Saxony, Germany

Now
49 °F

Cool.


Feels Like: 47 °F
Forecast: 45 / 55 °F
Wind: 5 mph from Southwest

Location: Meppen

Current Time: Dec 18, 2014 at 12:23:35 AM

Latest Report: Dec 17, 2014 at 11:00 PM


Visibility: 4 mi

Pressure: 29.72 "Hg

Humidity: 93%

Dew point: 47 °F

Location of MeppenLocation

Historic Weather in Meppen — Graph

°F

Meppen temperature yesterday

Maximum temperature yesterday: 49 °F (at 11:00 PM)
Minimum temperature yesterday: 34 °F (at 12:00 AM)
Average temperature yesterday: 42 °F

Past Weeks' High & Low Weather Summary

 TemperatureHumidityPressure
High49 °F (Dec 17, 11:00 PM)96% (Dec 6, 11:00 AM)30.34 "Hg (Dec 6, 11:00 AM)
Low26 °F (Dec 3, 8:00 PM)67% (Dec 11, 5:00 PM)29.23 "Hg (Dec 12, 12:00 PM)
Average38 °F87%29.92 "Hg
* Reported Dec 2 11:00 PM — Dec 17 11:00 PM, Meppen, Weather by CustomWeather, © 2014

Note: Actual official high and low records may vary slightly from our data, if they occured in-between our weather recording intervals... More about our weather records

Advertising

Meppen weather history for previous 24 hours

 ConditionsComfort  
Time TempWeatherWind HumidityBarometerVisibility
11:00 PM
Dec 17
49 °FCool.5 mph93%29.72 "Hg4 mi
9:00 PM48 °FCool.5 mph94%29.69 "Hg4 mi
8:00 PM48 °FCool.3 mph92%29.67 "Hg5 mi
6:00 PM48 °FCool.5 mph94%29.60 "Hg5 mi
5:00 PM48 °FCool.5 mph95%29.57 "Hg4 mi
3:00 PM44 °FRain. Low clouds.5 mph95%29.50 "Hg2 mi
2:00 PM42 °FDrizzle. Low clouds.6 mph94%29.50 "Hg2 mi
1:00 PM41 °FRain. Passing clouds.2 mph93%29.50 "Hg8 mi
12:00 PM40 °FDrizzle. Low clouds.6 mph93%29.54 "Hg2 mi
11:00 AM40 °FDrizzle. Low clouds.6 mph93%29.57 "Hg2 mi
9:00 AM39 °FRain. Low clouds.6 mph91%29.63 "Hg3 mi
8:00 AM39 °FLight rain. Overcast.5 mph90%29.67 "Hg4 mi
6:00 AM38 °FFog.5 mph91%29.73 "Hg3 mi
5:00 AM37 °FChilly.5 mph92%29.77 "Hg3 mi
4:00 AMN/APassing clouds.6 mphN/AN/A13 mi
3:00 AM36 °FChilly.3 mph91%29.83 "Hg4 mi
2:00 AM36 °FChilly.3 mph92%29.85 "Hg4 mi
12:00 AM34 °FChilly.3 mph93%29.88 "Hg5 mi
Weather by CustomWeather, © 2014

See weather overviewHow to use our weather pages